TimePST,TemperatureF,Dew PointF,Humidity,Sea Level PressureIn,VisibilityMPH,Wind Direction,Wind SpeedMPH,Gust SpeedMPH,PrecipitationIn,Events,Conditions,WindDirDegrees,DateUTC
12:56 AM,43.0,28.9,58,30.03,10.0,WSW,8.1,-,N/A,,Mostly Cloudy,250,2013-02-17 08:56:00
1:56 AM,42.1,27.0,55,30.04,10.0,West,11.5,-,N/A,,Overcast,270,2013-02-17 09:56:00
2:56 AM,42.1,27.0,55,30.04,10.0,West,10.4,-,N/A,,Partly Cloudy,270,2013-02-17 10:56:00
3:56 AM,42.1,26.1,53,30.05,10.0,West,8.1,-,N/A,,Mostly Cloudy,270,2013-02-17 11:56:00
4:56 AM,42.1,27.0,55,30.07,10.0,SSW,6.9,-,N/A,,Overcast,210,2013-02-17 12:56:00
5:56 AM,41.0,28.0,60,30.08,10.0,SW,4.6,-,N/A,,Overcast,230,2013-02-17 13:56:00
6:56 AM,41.0,26.1,55,30.08,10.0,Calm,Calm,-,N/A,,Overcast,0,2013-02-17 14:56:00
7:56 AM,41.0,26.1,55,30.09,10.0,WSW,4.6,-,N/A,,Mostly Cloudy,250,2013-02-17 15:56:00
8:56 AM,44.1,27.0,51,30.09,10.0,West,5.8,-,N/A,,Mostly Cloudy,260,2013-02-17 16:56:00
9:56 AM,46.9,26.1,44,30.10,10.0,WNW,8.1,-,N/A,,Scattered Clouds,300,2013-02-17 17:56:00
10:56 AM,48.9,26.1,41,30.10,10.0,NW,10.4,-,N/A,,Clear,320,2013-02-17 18:56:00
11:56 AM,50.0,26.1,39,30.11,10.0,WNW,16.1,19.6,N/A,,Partly Cloudy,290,2013-02-17 19:56:00
12:56 PM,50.0,26.1,39,30.10,10.0,WNW,16.1,23.0,N/A,,Partly Cloudy,290,2013-02-17 20:56:00
1:56 PM,48.9,24.1,38,30.09,10.0,WNW,9.2,-,N/A,,Overcast,300,2013-02-17 21:56:00
2:56 PM,48.9,25.0,39,30.09,10.0,WNW,11.5,-,N/A,,Scattered Clouds,290,2013-02-17 22:56:00
3:56 PM,48.0,24.1,39,30.11,10.0,NW,9.2,-,N/A,,Clear,310,2013-02-17 23:56:00
4:56 PM,46.0,25.0,44,30.12,10.0,NW,6.9,-,N/A,,Clear,310,2013-02-18 00:56:00
5:56 PM,44.1,25.0,47,30.12,10.0,West,3.5,-,N/A,,Overcast,260,2013-02-18 01:56:00
6:56 PM,43.0,25.0,49,30.12,10.0,WNW,3.5,-,N/A,,Overcast,290,2013-02-18 02:56:00
7:56 PM,41.0,27.0,57,30.13,10.0,ESE,6.9,-,N/A,,Mostly Cloudy,110,2013-02-18 03:56:00
8:56 PM,39.9,28.0,63,30.14,10.0,ESE,3.5,-,N/A,,Clear,110,2013-02-18 04:56:00
9:56 PM,37.9,28.0,68,30.13,10.0,SE,3.5,-,N/A,,Clear,140,2013-02-18 05:56:00
10:56 PM,36.0,28.0,73,30.14,10.0,SSE,5.8,-,N/A,,Clear,150,2013-02-18 06:56:00
11:56 PM,36.0,28.0,73,30.13,10.0,SSE,3.5,-,N/A,,Clear,150,2013-02-18 07:56:00